Location: Downe
(51.3167°N, 0.0500°E)
Time: 23:30:54
(UTC+00:00)

Cosmos 1980 Rocket - Pass Details

Date: 17 November 2019
Orbit: 827 x 851 km, 71.0° (Epoch: 08 December)

Event Time Altitude Azimuth Distance (km) Brightness Sun altitude
Exits shadow 05:01:52 23° 218° (SW) 1,730 3.5 -21.3°
Drops below altitude 10° 05:04:32 10° 196° (SSW) 2,468 4.5 -20.9°
Sets 05:07:14 0° 186° (S) 3,395 5.3 -20.4°
